Regional Weather Roundup
Issued by NWS

Home | Current Version | Previous Version | Graphics & Text | Print | Product List | Glossary On
Versions: 1 2 3 4 5 6 7 8 9 10 11 12 13 14 15 16 17 18 19 20 21 22 23 24 25 26 27 28 29 30 31 32 33 34 35 36 37 38 39 40 41 42 43 44 45 46 47 48 49 50
000
ASUS43 KMKX 042200
RWRWI

WISCONSIN REGIONAL WEATHER ROUNDUP
NATIONAL WEATHER SERVICE MILWAUKEE/SULLIVAN WI
400 PM CST SUN DEC 04 2016

NOTE: "FAIR" INDICATES FEW OR NO CLOUDS BELOW 12,000 FEET WITH NO
SIGNIFICANT WEATHER AND/OR OBSTRUCTIONS TO VISIBILITY.

WIZ001-002-006>008-014>016-023>028-042300-
NORTHWEST WISCONSIN

CITY           SKY/WX    TMP DP  RH WIND       PRES   REMARKS
SUPERIOR ARPT  MIX PCPN  33  31  93 S7        29.74F WCI  27
ASHLAND        CLOUDY    32  29  88 S7        29.76F WCI  26
HAYWARD        CLOUDY    32  29  88 S13       29.74F WCI  22
SIREN          LGT SNOW  32  32  99 S5        29.73F WCI  28
CUMBERLAND     MIX PCPN  32  32 100 S10       29.74F WCI  24
RICE LAKE      CLOUDY    32  32  99 S8        29.77F FOG     WCI  25
CHETEK         CLOUDY    32  32  99 S6        29.77F FOG     WCI  26
LADYSMITH      LGT SNOW  32  31  95 S7        29.79F WCI  26
EAU CLAIRE     NOT AVBL
MENOMONIE      CLOUDY    33  33 100 S7        29.78F FOG     WCI  27
NEW RICHMOND   CLOUDY    33  33 100 S8        29.76S WCI  26
OSCEOLA        CLOUDY    34  34 100 S9        29.78S WCI  26
$$

WIZ003>005-009-010-017-018-042300-
NORTH CENTRAL WISCONSIN

CITY           SKY/WX    TMP DP  RH WIND       PRES   REMARKS
MANITOWISH WTR LGT SNOW  29  29 100 S8        29.77F WCI  21
ARBOR VITAE    LGT SNOW  32  30  92 S9        29.78F WCI  24
WOODRUFF       LGT SNOW  32  30  92 S9        29.78F WCI  24
RHINELANDER    LGT SNOW  30  28  92 S7        29.79F VSB 1   WCI  23
EAGLE RIVER    LGT SNOW  29  28  98 S7        29.79F WCI  22
LAND O LAKES   LGT SNOW  29  28  94 SE8       29.80F WCI  21
PHILLIPS       LGT SNOW  29  28  96 S9        29.77F WCI  21
TOMAHAWK       LGT SNOW  29  27  93 S3        29.80F
MEDFORD        MIX PCPN  29  28  94 S13       29.78F WCI  19
MERRILL        LGT SNOW  30  29  98 S5        29.82F WCI  25
$$

WIZ029-030-035-036-043>047-042300-
CENTRAL WISCONSIN

CITY           SKY/WX    TMP DP  RH WIND       PRES   REMARKS
WAUSAU         LGT SNOW  29  28  96 S9        29.81F VSB 3/4 WCI  20
MOSINEE        LGT SNOW  28  28 100 SE8       29.83F VSB 1   WCI  20
MARSHFIELD     LGT SNOW  30  27  88 S13       29.80F FOG     WCI  20
STEVENS POINT  MIX PCPN  28  28 100 S6        29.84F VSB 3/4 WCI  22
WAUPACA        LGT SNOW  33  31  94 CALM      29.88F VSB 1
WAUTOMA        LGT SNOW  31  30  96 S9        29.87F VSB 1   WCI  23
WISC RAPIDS    LGT SNOW  31  30  96 S7        29.85F VSB 1   WCI  24
CAMP DOUGLAS   CLOUDY    32  30  93 S8        29.84S WCI  25
$$

WIZ011>013-019>022-031-037>040-048>050-042300-
NORTHEAST WISCONSIN

CITY           SKY/WX    TMP DP  RH WIND       PRES   REMARKS
ANTIGO         LGT SNOW  28  28  98 SE9       29.83F WCI  19
SHAWANO        MIX PCPN  33  31  94 CALM      29.89F
OCONTO         CLOUDY    31  31  97 CALM      29.90F
STURGEON BAY   LGT SNOW  32  30  92 CALM      29.90F FOG
GREEN BAY      SNOW      33  32  96 E3        29.89F VSB 1/2
MANITOWOC      NOT AVBL
APPLETON       LGT SNOW  30  30 100 S5        29.87F VSB 1   WCI  25
CLINTONVILLE   LGT SNOW  32  30  93 S7        29.88F WCI  26
OSHKOSH        SNOW      31  29  92 S8        29.88F VSB 1/2 WCI  23
$$

WIZ032>034-041-042-053>061-042300-
SOUTHWEST WISCONSIN

CITY           SKY/WX    TMP DP  RH WIND       PRES   REMARKS
LA CROSSE      CLOUDY    35  32  88 S9        29.84S FOG     WCI  28
SPARTA         CLOUDY    32  31  94 S3        29.85S
VIROQUA        CLOUDY    31  31  99 CALM      29.83F
BOSCOBEL       CLOUDY    34  30  85 S3        29.88S
PRAIRIE DU CHI CLOUDY    33  31  92 S3        29.88S FOG
PLATTEVILLE    CLOUDY    31  31 100 S8        29.88S WCI  24
$$

WIZ056-057-062-063-064-067-068-042300-
SOUTH CENTRAL WISCONSIN

CITY           SKY/WX    TMP DP  RH WIND       PRES   REMARKS
REEDSBURG      MIX PCPN  31  31 100 S6        29.86F WCI  25
BARABOO/DELLS  MIX PCPN  31  29  94 S9        29.86F WCI  22
LONE ROCK      LGT SNOW  32  29  88 CALM      29.89S VSB 1
MINERAL POINT  LGT SNOW  32  32 100 S9        29.86F WCI  24
MADISON        LGT SNOW  31  29  92 S10       29.88F VSB 3/4 WCI  22
MIDDLETON      CLOUDY    32  32 100 S5        29.89F WCI  27
WATERTOWN      LGT SNOW  31  31 100 CALM      29.90F VSB 3/4
MONROE         LGT SNOW  30  30 100 S8        29.88F WCI  23
JANESVILLE     LGT SNOW  32  32 100 CALM      29.90F VSB 3/4
$$

WIZ051-052-058>065-066-070>072-042300-
SOUTHEAST WISCONSIN

CITY           SKY/WX    TMP DP  RH WIND       PRES   REMARKS
MILWAUKEE      LGT SNOW  34  31  88 S8        29.89F VSB 3/4 WCI  27
WAUKESHA       NOT AVBL
MILWAUKEE/TIMM SNOW      32  30  93 MISG      29.90F VSB 1/2
RACINE         SNOW      33  31  92 S3        29.91F VSB 1/2
BURLINGTON     LGT SNOW  32  31  99 CALM      29.90F VSB 3/4
KENOSHA        SNOW      33  31  92 S5        29.90F VSB 1/4 WCI  29
FOND DU LAC    SNOW      32  29  88 S6        29.89F VSB 1/2 WCI  26
SHEBOYGAN      SNOW      32  31  96 S5        29.89F VSB 1/2 WCI  27
WEST BEND      LGT SNOW  32  32 100 CALM      29.90F VSB 3/4
JUNEAU         SNOW      30  30  98 S3        29.91S VSB 1/2
$$

LSZ147-162-042300-
LAKE SUPERIOR

STATION/POSITION TIME  TEMP    WIND        PRES    WAVE
                       AIR SEA DIR/SP/G            HT/PER
                 (UTC) (F)     (DEG/KT/KT) (MB)    (FT/S)
DEVILS ISLAND    2100   32     160/  8/ 13 1009.4F
PORT WING        2140   33     160/  5/  7 1007.8F
SAXON HARBOR     2140   33     190/  4/  8 1008.5F
$$

LMZ867-665-643>646-042300-
LAKE MICHIGAN

STATION/POSITION TIME  TEMP    WIND        PRES    WAVE
                       AIR SEA DIR/SP/G            HT/PER
                 (UTC) (F)     (DEG/KT/KT) (MB)    (FT/S)
CHAMBERS ISLAND  1940   32     150/  2/  4 1014.2F
NORTHPORT PIER   2140   32        CALM     1013.2F
KEWAUNEE LAKESHO 2130   32        CALM     1012.5F
SHEBOYGAN LAKESH 2100   35     180/ 18/ 20 1013.3F
PORT WASHINGTON  2130   35     180/ 13/ 19 1013.5F
MILWAUKEE LAKESH 2130   34     170/ 11/ 13   N/A
S MID LAKE BUOY  2050   36 48  140/ 14/ 17 1013.7F   2/ 4
KENOSHA   LAKESH 2100   34     180/ 10/ 14 1013.2
$$

TC  - TEMPERATURE IN CELSIUS
VSB - VISIBILITY IN STATUTE MILES
WCI - WIND CHILL INDEX
HX  - HEAT INDEX





USA.gov is the U.S. government's official web portal to all federal, state and local government web resources and services.